Regional Weather Roundup
Issued by NWS Sioux Falls, SD

Home | Current Version | Previous Version | Text Only | Print | Product List | Glossary On
Versions: 1 2 3 4 5 6 7 8 9 10 11 12 13 14 15 16 17 18 19 20 21 22 23 24 25 26 27 28 29 30 31 32 33 34 35 36 37 38 39 40 41 42 43 44 45 46 47 48 49 50
000
ASUS43 KFSD 300102
RWRFSD

WEATHER ROUNDUP FOR SE SOUTH DAKOTA/SW MINNESOTA/NW IOWA
NATIONAL WEATHER SERVICE SIOUX FALLS SD
700 PM CST THU JAN 29 2015

NOTE: "FAIR" INDICATES FEW OR NO CLOUDS BELOW 12,000 FEET WITH NO
SIGNIFICANT WEATHER AND OR OBSTRUCTIONS TO VISIBILITY.


SDZ038>040-050-052>070-300200-
SOUTHEAST SOUTH DAKOTA

CITY           SKY/WX    TMP DP  RH WIND       PRES   REMARKS
CHAMBERLAIN    NOT AVBL
HURON          CLOUDY    26  19  74 NE9       30.52R WCI  17
MADISON        CLOUDY    23  23 100 N13       30.49R WCI  11
MITCHELL       CLEAR     25  19  78 NE5       30.53R WCI  19
SIOUX FALLS    CLOUDY    25  18  74 N12       30.50R WCI  14
WINNER         FAIR      33  20  58 NE5       30.47R WCI  29
YANKTON        CLEAR     27  19  74 N8        30.52R WCI  18
$$

MNZ071-072-080-081-089-090-097-098-300200-
SOUTHWEST MINNESOTA

CITY           SKY/WX    TMP DP  RH WIND       PRES   REMARKS
FAIRMONT       PTCLDY    21  12  68 NW17G25   30.44R WCI   7
JACKSON        PTCLDY    23  18  80 NW18G25   30.46R WCI   9
LUVERNE        CLOUDY    28  21  74 NW10      30.50R WCI  19
MARSHALL       MOCLDY    19  10  68 N16G24    30.52R WCI   5
MONTEVIDEO     MOCLDY    18  12  79 N15G21    30.54R WCI   3
PIPESTONE      CLOUDY    25  18  74 N8        30.48R WCI  16
REDWOOD FALLS  CLEAR     18  11  74 NW16G23   30.51R WCI   3
TRACY          CLOUDY    22  17  81 N15G22    30.50R WCI   9
WINDOM         PTCLDY    19  16  86 NW18      30.48R WCI   4
WORTHINGTON    CLOUDY    21  16  79 N17       30.48R WCI   7
$$

IAZ001>003-012>014-020>022-031-032-NEZ013-014-SDZ071-300200-
NORTHWEST IOWA

CITY           SKY/WX    TMP DP  RH WIND       PRES   REMARKS
ESTHERVILLE    CLEAR     22  16  78 NW20      30.46R WCI   7
SIOUX CITY     CLOUDY    32  22  66 N20       30.51R WCI  20
SPENCER        CLOUDY    26  18  71 N20       30.48R WCI  12
$$

ABBREVIATIONS USED IN REMARKS
   TC - TEMPERATURE IN CELSIUS
  WCI - WIND CHILL INDEX
   HX - HEAT INDEX
  VSB - VISIBILITY




USA.gov is the U.S. government's official web portal to all federal, state and local government web resources and services.